Home > Weather > Mexicali > Past weeks

Flag for Mexico Past Weather in Mexicali, Baja California, Mexico — Yesterday and Last 2 Weeks

Now
83 °F

Clear.


Feels Like: 81 °F
Forecast: 79 / 108 °F
Wind: No wind

Location: Imperial County Airport

Current Time: Jun 26, 2016 at 3:12:55 AM

Latest Report: Jun 26, 2016 at 1:53 AM


Visibility: 10 mi

Pressure: 29.73 "Hg

Humidity: 32%

Dew Point: 50 °F

Location of MexicaliLocation

Past Weather in Mexicali — Graph

°F

Mexicali Temperature Yesterday

Maximum temperature yesterday: 107 °F (at 4:53 PM)
Minimum temperature yesterday: 76 °F (at 5:53 AM)
Average temperature yesterday: 92 °F

High & Low Weather Summary for the Past Weeks

 TemperatureHumidityPressure
High119 °F (Jun 20, 2:53 PM)66% (Jun 11, 5:53 AM)29.94 "Hg (Jun 11, 5:53 AM)
Low68 °F (Jun 12, 3:53 AM)5% (Jun 18, 12:53 PM)29.60 "Hg (Jun 24, 5:53 PM)
Average91 °F25%29.78 "Hg
* Reported Jun 11 1:53 AM — Jun 26 1:53 AM, Mexicali, Weather by CustomWeather, © 2016

Note: Actual official high and low records may vary slightly from our data, if they occured in-between our weather recording intervals... More about our weather records

Advertising

Mexicali Weather History for the Previous 24 Hours

Scroll right to see more
 ConditionsComfort  
Time TempWeatherWind HumidityBarometerVisibility
1:53 AM
Sun, Jun 26
83 °FClear.No wind32%29.73 "Hg10 mi
12:53 AM82 °FClear.No wind35%29.73 "Hg10 mi
11:53 PM
Sat, Jun 25
89 °FClear.5 mph19%29.73 "Hg10 mi
10:53 PM89 °FClear.6 mph22%29.73 "Hg10 mi
9:53 PM93 °FClear.3 mph20%29.71 "Hg10 mi
8:53 PM95 °FSunny.6 mph19%29.70 "Hg10 mi
7:53 PM99 °FSunny.8 mph16%29.68 "Hg10 mi
6:53 PM103 °FSunny.13 mph16%29.68 "Hg10 mi
5:53 PM106 °FSunny.14 mph14%29.67 "Hg10 mi
4:53 PM107 °FSunny.12 mph15%29.68 "Hg10 mi
3:53 PM106 °FSunny.10 mph16%29.70 "Hg10 mi
2:53 PM105 °FSunny.12 mph20%29.73 "Hg10 mi
1:53 PM103 °FSunny.8 mph23%29.75 "Hg10 mi
12:53 PM99 °FSunny.N/A28%29.77 "Hg10 mi
11:53 AM96 °FSunny.9 mph34%29.78 "Hg10 mi
10:53 AM93 °FSunny.6 mph40%29.79 "Hg10 mi
9:53 AM90 °FSunny.No wind42%29.80 "Hg10 mi
8:53 AM86 °FSunny.3 mph46%29.79 "Hg10 mi
7:53 AM84 °FSunny.6 mph45%29.78 "Hg10 mi
6:53 AM80 °FSunny.6 mph47%29.76 "Hg10 mi
5:53 AM76 °FClear.5 mph54%29.74 "Hg10 mi
4:53 AM78 °FClear.7 mph60%29.72 "Hg10 mi
3:53 AM80 °FClear.8 mph56%29.71 "Hg10 mi
Weather by CustomWeather, © 2016

See weather overviewHow to use our weather pages